Find OneWeb SL0569

NORAD ID: 55148 Int'l Des: 2023-004 Owner: ONEWEBN Country: UK Constellation: oneweb operational
又名: ONEWEB-0569 spacetrack, celestrak
LEOCIRCULARPOLARONEWEB_TYPE

当前视图

正在加载3D地球...

About OneWeb SL0569

OneWeb SL0569 (NORAD 55148) is a oneweb constellation satellite launched Jan 10, 2023 by ONEWEBN of UK. It operates in LEO, CIRCULAR, POLAR, ONEWEB_TYPE orbit with a mass of 148.00 kg.

即将过境

Passes for default location (London). Set your location on the main map for personalized predictions.

高度历史

Loading altitude history...

两行轨道根数

1 55148U 23004J 26265.59162250 -.00000334 00000-0 -95019-3 0 9992
2 55148 87.8917 300.8443 0001298 69.7967 290.3302 13.13469840182965
Epoch: Sep 22, 2026 • Age: 18 hours

当前状态

高度 1237.5 km
远地点 / 近地点 N/A
速度 7.24 km/s
星下点 -72.19°S, 6.06°E
发射日期 Jan 10, 2023
运行时间 3.7 years
类型 internet

技术详情

分类 Payload
质量 148.00 kg
干质量 140.00 kg
长度 1.30 m
直径 1.00 m
跨度 5.00 m
形状 ? Trapezoid+2 pan
制造商 ONEWUS
平台类型 ARROW
阶段状态 In Orbit
所有者/国家 ONEWEBN/UK

Most Searched